Wind_Speed
29 31 33 36 39 40 42 35 25 14 12 14 21 28 32 18 16 21 19 17 8 9 8 8 13 20 20 26 32 18 8 6 7 10 9 6 11 11 13 13 19 20 22 22 25 29 29 30 33
23 28 32 29 35 38 46 46 40 30 19 15 12 25 30 26 23 22 19 15 13 14 19 22 26 30 32 30 19 9 4 6 11 10 6 12 12 9 8 10 13 19 22 23 23 27 29 28 29
22 27 30 25 28 40 44 47 47 40 30 19 14 13 30 27 24 18 16 25 24 22 18 25 29 30 21 6 4 1 7 10 8 6 8 12 10 7 7 10 11 12 16 20 22 24 26 25 24
22 30 27 22 27 37 43 43 44 45 41 34 24 16 11 16 32 31 29 24 22 29 33 20 11 8 4 6 4 4 10 10 10 7 9 11 9 6 4 6 5 10 12 16 16 20 22 21 20
29 33 27 24 33 35 36 38 40 41 41 40 37 32 27 22 16 10 6 7 9 10 6 4 6 10 11 9 5 6 9 11 10 10 7 9 5 4 3 3 5 7 14 15 14 14 19 19 19
31 34 29 27 31 32 34 34 33 35 36 37 36 35 34 31 28 24 21 19 17 14 12 13 13 12 10 7 5 6 9 10 9 7 7 6 4 4 2 2 2 4 8 16 16 15 14 15 16
34 32 31 34 33 30 26 28 29 33 31 31 31 31 31 29 27 25 23 21 19 17 15 12 10 7 5 4 5 7 6 7 5 5 4 3 3 3 2 3 5 7 7 6 13 14 13 11 12
25 24 30 31 30 30 29 27 26 25 29 30 25 27 25 23 23 21 21 20 18 16 14 10 6 5 5 5 5 5 4 4 4 2 1 1 2 5 3 8 10 5 1 4 6 10 11 6 6
26 26 29 28 32 32 29 31 28 25 23 26 26 20 19 20 18 16 14 15 14 13 12 11 10 9 7 5 4 1 2 4 3 3 2 3 3 3 7 12 10 11 7 8 6 7 6 6 8
23 28 27 32 33 35 36 33 32 30 27 22 21 22 15 16 15 12 12 11 10 10 9 8 6 5 6 5 5 4 5 6 5 3 2 2 2 3 3 6 7 14 15 14 9 3 6 3 1
20 20 26 26 27 32 36 35 32 28 27 25 23 19 17 10 13 17 8 8 7 5 4 4 3 2 1 2 3 5 7 6 7 11 11 9 7 5 2 2 5 6 7 14 14 5 7 5 7
17 14 19 26 30 18 38 36 34 30 25 20 18 17 13 15 10 8 8 5 4 7 8 7 7 7 9 9 9 10 14 13 12 14 14 15 14 13 11 9 5 5 8 10 14 14 7 5 5
12 10 11 23 29 21 16 24 33 30 30 26 20 17 14 12 12 12 12 11 11 11 12 10 12 13 13 15 17 19 18 18 20 18 19 20 18 18 21 19 16 12 9 11 13 15 20 23 13
8 8 10 25 24 23 21 14 30 29 29 27 23 19 16 14 12 13 14 14 13 14 15 19 19 19 23 25 27 27 26 24 23 23 24 25 26 24 24 21 20 20 18 17 14 13 15 17 14
8 10 11 15 22 21 18 23 26 30 29 27 22 20 20 18 16 16 15 16 16 17 18 18 21 24 25 27 29 28 28 28 27 26 29 28 30 28 25 26 24 22 23 26 24 21 20 17 19
8 8 15 12 19 19 20 25 27 28 30 28 25 24 23 19 16 17 19 18 19 22 22 21 22 24 26 27 28 29 28 28 29 30 32 33 33 30 31 36 36 34 31 30 33 31 28 25 22
10 12 17 16 18 19 19 22 24 26 28 29 28 24 25 26 24 20 20 21 20 21 22 24 25 26 26 26 28 29 30 31 31 32 33 32 32 36 41 36 36 33 33 32 36 36 35 33 30
8 10 12 14 14 18 20 23 26 26 29 29 32 29 29 29 30 28 24 23 23 24 25 26 26 27 28 29 31 32 33 35 35 34 33 33 34 33 33 34 31 30 29 30 33 37 37 37 33
8 13 15 14 17 17 22 23 27 22 31 32 35 33 34 34 33 32 30 27 26 25 25 27 30 31 33 34 35 36 36 38 37 36 37 36 34 33 34 32 31 31 33 29 34 36 41 42 38
13 15 16 15 20 25 23 7 24 32 34 37 40 37 36 36 34 31 28 27 27 29 32 34 35 37 39 39 39 39 37 38 37 36 34 34 34 33 31 32 33 34 34 35 33 35 37 38 41
17 20 17 23 21 23 24 17 27 36 33 36 39 39 39 38 36 31 29 31 32 32 34 35 37 39 41 42 42 43 42 39 38 37 36 35 33 33 35 34 33 33 35 35 35 36 35 39 37
17 20 19 21 24 22 26 30 34 40 40 38 35 40 39 40 36 35 33 34 34 35 35 35 36 38 41 43 44 44 43 42 39 37 35 35 36 36 35 35 37 36 34 35 36 35 36 38 38
21 20 24 24 28 25 27 30 35 36 38 41 44 41 40 41 42 38 36 37 36 38 35 29 32 37 41 43 45 45 46 44 41 39 37 35 35 36 35 36 37 38 38 38 37 36 37 37 38
33 28 27 29 29 29 26 37 39 43 40 41 41 40 39 36 37 41 39 41 40 36 30 40 36 40 43 45 44 44 43 43 42 40 38 38 38 38 37 37 38 39 40 40 41 38 39 39 40
27 27 29 30 32 33 35 39 42 42 45 47 45 43 44 42 37 35 38 35 36 42 47 43 40 38 45 51 48 45 42 41 39 37 37 38 38 39 41 42 44 44 42 40 42 42 42 42 42
27 29 34 34 37 42 44 44 46 45 49 55 53 53 48 45 43 36 35 23 31 36 32 33 46 54 56 56 48 43 40 40 39 37 36 35 35 36 38 39 40 43 45 46 45 43 46 47 46
34 33 33 37 48 46 50 52 49 47 47 51 52 54 52 54 49 46 40 29 23 32 35 43 51 56 59 55 46 37 37 39 40 40 42 42 42 41 39 39 39 41 44 47 46 48 50 49 52
37 34 37 41 49 52 51 53 53 52 51 50 51 56 53 53 55 55 52 42 29 27 40 49 58 60 61 45 39 38 37 39 42 45 48 49 50 51 51 49 46 45 45 47 47 49 50 52 52
32 38 44 48 52 59 55 55 56 57 54 51 55 59 50 50 52 56 56 54 43 33 32 40 44 45 39 34 37 38 39 40 42 45 48 51 53 56 58 58 58 54 52 49 48 49 51 53 53
46 51 51 49 52 55 57 61 60 59 56 56 58 57 54 53 53 56 57 57 48 47 42 39 38 37 35 36 37 41 45 46 48 49 52 56 59 62 64 65 65 63 62 60 57 56 55 54 54
Wind_Direction
35 33 33 40 40 43 48 55 60 84 144 166 192 201 199 203 196 207 214 240 266 237 273 222 248 238 296 332 320 332 348 333 356 357 13 56 125 115 70 64 57 53 49 47 44 44 41 38 48
38 40 36 37 46 50 51 54 60 65 95 130 141 194 198 207 218 227 227 234 238 216 224 277 280 295 296 307 312 327 334 353 3 9 42 127 134 127 85 69 69 55 45 45 45 42 43 42 40
39 46 37 35 43 52 56 56 57 64 72 87 125 155 185 175 182 194 199 217 226 228 253 272 280 290 289 288 283 26 8 10 16 38 109 132 133 130 102 82 74 51 42 37 40 46 40 45 46
45 40 42 46 53 56 57 61 60 61 66 73 83 103 145 198 217 223 239 223 232 242 268 281 270 272 222 160 138 42 16 33 31 60 127 138 140 126 126 62 50 33 40 35 35 37 45 46 50
40 45 50 57 54 58 58 59 61 65 68 70 74 79 87 98 114 126 154 205 233 238 217 186 148 141 139 136 116 44 48 40 46 74 105 152 161 192 177 83 10 34 50 45 46 38 40 46 47
53 46 45 55 54 56 57 59 61 62 65 68 71 75 79 81 82 85 88 94 99 108 120 127 127 121 125 130 105 67 64 46 63 71 84 124 159 181 187 26 26 83 63 46 48 47 35 43 47
57 56 45 49 50 52 53 52 53 58 59 66 72 71 73 76 79 79 77 77 77 83 90 94 103 115 119 92 80 89 68 46 55 94 104 96 172 203 232 177 139 83 65 31 47 41 32 27 50
46 44 38 48 55 53 52 48 48 57 56 57 70 77 78 74 73 75 81 79 81 82 82 88 104 116 116 115 94 71 28 21 28 11 11 15 354 258 227 162 166 168 15 354 36 39 27 12 48
43 42 41 42 46 53 54 52 46 48 57 57 55 60 73 79 75 70 64 71 77 78 79 80 78 76 79 84 85 62 49 55 36 14 328 292 304 312 253 193 207 228 247 275 314 31 9 89 28
38 40 47 45 49 52 53 51 50 47 49 54 50 48 52 56 63 68 71 60 52 64 68 72 70 62 64 53 39 16 348 338 323 323 331 4 3 23 239 233 245 245 250 262 260 3 358 350 291
34 27 43 33 41 53 51 44 43 46 48 45 43 35 52 59 53 48 49 53 28 26 45 52 18 333 323 300 308 312 307 293 277 278 280 278 276 280 298 246 225 236 252 253 240 216 302 276 211
34 14 30 25 34 26 38 35 36 33 29 29 32 26 23 32 31 30 30 28 10 336 328 321 312 305 301 299 292 287 290 277 270 272 266 263 270 270 263 260 236 226 239 253 243 225 227 214 262
8 13 19 18 20 25 7 14 28 25 23 23 23 24 22 15 13 7 1 348 334 328 321 304 287 288 290 294 296 299 298 293 278 275 275 264 256 263 263 265 259 248 249 242 239 238 228 235 250
1 15 10 10 12 7 12 13 13 18 16 16 20 16 11 357 340 328 327 326 320 312 307 309 304 295 291 291 293 296 295 291 282 280 277 276 272 267 262 256 257 260 254 254 245 235 222 238 249
53 62 345 344 12 15 11 22 12 9 7 11 14 11 9 4 352 339 329 318 316 313 303 294 292 293 290 288 289 290 290 290 289 283 281 273 269 271 263 255 257 263 261 251 250 237 225 243 241
77 24 12 348 6 11 4 5 7 5 3 6 360 3 2 357 349 343 333 322 310 309 305 297 291 290 291 293 293 293 292 289 286 284 281 279 276 277 266 263 263 260 254 258 249 247 242 244 239
21 359 3 6 3 359 356 2 1 354 359 2 349 352 354 356 347 325 316 313 313 310 304 299 295 292 291 292 291 291 290 288 286 285 284 278 272 269 270 273 272 269 263 254 244 242 243 243 240
295 314 358 13 360 342 348 353 346 350 358 351 352 352 351 349 344 335 321 308 305 303 300 301 299 298 297 295 294 294 293 292 290 287 284 281 280 275 272 271 268 261 257 254 245 243 241 237 238
300 306 313 325 349 344 340 341 342 342 347 348 350 352 348 346 341 335 327 321 317 318 316 309 304 301 298 296 294 292 292 289 288 285 286 283 276 274 273 267 263 257 252 254 249 247 247 247 240
319 313 301 327 342 336 333 67 342 339 347 348 347 348 344 342 340 337 331 326 322 317 314 312 310 307 303 298 293 290 289 285 285 281 279 276 276 271 262 262 263 260 258 257 253 247 247 249 247
295 305 304 305 335 333 331 314 321 340 348 344 340 341 342 340 340 336 330 324 321 319 318 316 313 311 303 300 297 293 289 286 286 285 283 277 273 272 273 268 261 264 263 260 259 253 249 246 242
290 304 301 307 320 323 334 340 333 333 337 339 340 337 340 337 333 329 328 325 321 316 313 312 314 314 310 301 295 292 289 285 285 285 283 279 278 274 270 269 270 265 259 261 262 254 252 251 251
294 302 301 316 312 321 333 326 334 334 332 335 337 340 338 334 331 329 328 322 318 312 308 316 319 320 315 307 298 294 293 291 288 285 283 279 271 269 272 273 270 267 264 260 256 257 258 253 246
299 300 300 306 307 320 329 326 332 327 333 331 333 336 335 327 324 324 327 324 318 311 309 308 310 315 318 312 303 297 295 294 291 290 287 285 283 281 279 274 272 272 267 261 260 257 256 254 254
290 289 297 302 306 312 317 319 327 326 329 326 334 332 332 332 326 323 324 325 316 308 304 302 307 314 317 317 308 302 296 294 294 293 290 287 285 282 281 280 279 275 266 260 259 257 252 251 250
286 294 296 303 303 311 313 317 320 327 330 329 333 332 331 327 329 326 332 324 298 299 301 287 300 307 312 314 307 302 302 302 301 299 296 290 285 279 273 270 270 271 270 266 262 258 259 252 251
297 296 301 309 308 313 316 320 320 327 326 329 328 325 331 327 331 328 336 342 312 290 292 297 300 309 306 303 300 302 304 305 306 306 304 302 298 293 285 278 272 268 267 267 262 259 257 257 255
285 289 300 309 309 310 312 313 320 322 327 328 321 325 332 330 330 331 333 336 336 289 284 286 293 294 291 288 295 299 301 304 306 307 307 304 302 300 296 291 284 277 272 267 265 263 260 256 256
278 293 297 303 307 310 311 315 317 322 325 322 322 326 330 328 328 327 329 331 332 315 288 280 281 284 295 300 300 299 300 302 305 306 304 302 301 300 297 295 291 283 278 272 268 264 262 258 254
290 295 297 302 305 308 312 315 322 321 323 316 317 326 328 330 328 326 328 324 323 320 315 304 298 299 301 300 301 302 307 311 309 307 306 306 302 299 296 293 291 287 285 280 275 271 266 264 260
Height
11020 11015 11008 11005 10998 10993 10983 10975 10971 10968 10969 10972 10976 10980 10987 10991 10993 10997 10998 10999 11001 11003 11004 11006 11008 11009 11009 11007 11009 11009 11010 11009 11009 11008 11006 11006 11006 11005 11003 11001 10997 10994 10992 10989 10986 10984 10981 10978 10976
11024 11017 11014 11013 11008 10997 10988 10983 10976 10973 10972 10975 10978 10983 10987 10990 10993 10996 10998 11000 11001 11001 11003 11003 11005 11007 11008 11008 11009 11010 11011 11011 11010 11009 11007 11007 11006 11006 11005 11003 11001 10997 10994 10993 10990 10987 10986 10983 10981
11025 11020 11016 11014 11013 11002 10996 10990 10986 10982 10979 10980 10983 10985 10989 10990 10993 10995 10997 10999 11001 11000 11003 11004 11005 11006 11007 11007 11009 11011 11011 11011 11011 11010 11009 11008 11008 11007 11006 11005 11003 11000 10998 10996 10993 10991 10989 10987 10986
11026 11019 11022 11020 11015 11007 11003 10999 10997 10992 10989 10988 10988 10989 10991 10993 10996 10998 10998 10999 10999 11000 11003 11002 11002 11004 11005 11008 11011 11012 11012 11012 11012 11011 11011 11010 11010 11009 11009 11008 11006 11003 11001 10999 10996 10994 10992 10991 10989
11033 11028 11027 11024 11016 11012 11009 11008 11005 11002 10999 10998 10997 10997 10997 10998 11000 11001 11000 11000 11001 11002 11003 11003 11004 11005 11008 11010 11012 11013 11013 11013 11013 11013 11013 11012 11011 11010 11010 11010 11009 11007 11004 11002 10999 10997 10995 10994 10992
11032 11032 11034 11025 11020 11017 11016 11014 11013 11010 11007 11005 11004 11004 11004 11003 11003 11004 11004 11004 11004 11004 11005 11006 11007 11008 11010 11011 11013 11014 11014 11015 11015 11015 11014 11014 11013 11012 11011 11011 11010 11009 11007 11005 11002 11000 10998 10996 10995
11034 11036 11036 11029 11025 11022 11021 11020 11018 11016 11013 11012 11010 11009 11009 11009 11009 11009 11009 11008 11008 11009 11010 11010 11010 11012 11013 11013 11014 11014 11015 11015 11015 11015 11014 11014 11014 11013 11012 11012 11012 11011 11009 11006 11003 11001 10999 10997 10997
11042 11042 11038 11035 11032 11030 11028 11025 11023 11021 11019 11017 11016 11015 11015 11014 11014 11013 11013 11013 11013 11013 11014 11014 11015 11015 11014 11014 11015 11015 11016 11015 11015 11015 11015 11015 11014 11013 11012 11013 11013 11011 11009 11007 11005 11004 11002 10999 10998
11050 11046 11041 11042 11038 11035 11033 11030 11029 11026 11023 11022 11021 11020 11019 11019 11019 11019 11018 11018 11018 11017 11017 11017 11016 11016 11015 11015 11015 11016 11016 11016 11015 11015 11014 11014 11013 11012 11012 11013 11014 11012 11010 11007 11007 11006 11004 11002 11000
11054 11050 11048 11047 11043 11042 11038 11035 11032 11029 11027 11027 11025 11024 11022 11022 11022 11022 11021 11020 11019 11019 11018 11018 11018 11018 11017 11017 11017 11018 11017 11017 11015 11014 11013 11012 11012 11011 11010 11010 11011 11010 11010 11007 11007 11007 11007 11007 11003
11055 11054 11050 11051 11049 11046 11043 11040 11036 11034 11032 11030 11029 11028 11026 11025 11024 11024 11023 11023 11021 11020 11020 11019 11019 11019 11018 11018 11017 11017 11016 11016 11014 11013 11012 11011 11011 11010 11009 11008 11008 11007 11006 11005 11005 11005 11005 11004 11002
11053 11055 11053 11052 11052 11049 11045 11042 11039 11037 11035 11033 11031 11030 11028 11026 11025 11024 11024 11024 11023 11021 11020 11019 11017 11017 11017 11016 11016 11016 11015 11014 11012 11010 11009 11009 11008 11008 11007 11007 11006 11004 11002 11001 11002 11004 11003 11002 10999
11054 11055 11054 11055 11053 11051 11047 11044 11041 11039 11036 11033 11031 11029 11028 11026 11025 11024 11023 11023 11022 11022 11019 11019 11018 11016 11015 11013 11012 11012 11011 11010 11009 11007 11006 11005 11005 11003 11003 11003 11003 11003 11001 10997 10997 10998 10999 10996 10996
11057 11054 11053 11054 11054 11052 11049 11044 11042 11039 11036 11034 11031 11030 11028 11026 11024 11023 11022 11021 11019 11018 11018 11014 11013 11012 11011 11010 11008 11007 11006 11005 11003 11001 11000 10999 10999 10998 10996 10996 10998 11000 11000 10995 10992 10993 10994 10990 10990
11058 11056 11053 11053 11053 11053 11051 11048 11046 11042 11038 11035 11033 11031 11028 11026 11023 11021 11019 11017 11015 11014 11013 11013 11011 11008 11007 11005 11004 11002 11001 10999 10997 10997 10993 10992 10991 10991 10990 10989 10989 10991 10995 10993 10990 10988 10989 10985 10986
11056 11057 11054 11053 11054 11053 11051 11049 11046 11043 11039 11036 11034 11031 11028 11025 11021 11019 11016 11014 11013 11010 11008 11006 11005 11003 11001 10999 10997 10995 10994 10993 10991 10988 10987 10985 10983 10982 10982 10981 10981 10982 10984 10987 10986 10985 10984 10982 10982
11058 11057 11055 11053 11052 11053 11052 11049 11046 11043 11039 11036 11036 11031 11026 11022 11019 11016 11014 11011 11009 11006 11004 11001 10999 10997 10995 10994 10992 10989 10987 10985 10984 10982 10979 10977 10975 10974 10972 10970 10970 10970 10972 10974 10978 10978 10978 10980 10980
11057 11056 11058 11055 11055 11054 11053 11049 11046 11041 11038 11039 11036 11030 11025 11021 11017 11014 11010 11007 11004 11002 11000 10997 10994 10992 10989 10986 10984 10981 10978 10975 10974 10972 10971 10969 10966 10965 10964 10961 10960 10960 10963 10964 10965 10969 10970 10972 10973
11052 11054 11056 11056 11057 11055 11050 11049 11044 11044 11041 11038 11032 11027 11023 11019 11015 11011 11007 11004 11002 10999 10996 10993 10989 10987 10983 10980 10976 10973 10969 10967 10965 10963 10960 10959 10959 10958 10956 10955 10952 10951 10953 10955 10956 10957 10960 10963 10966
11052 11053 11052 11050 11050 11051 11050 11048 11045 11043 11037 11031 11027 11024 11020 11016 11012 11008 11004 11002 10999 10996 10993 10989 10985 10980 10977 10973 10968 10964 10961 10958 10957 10956 10954 10952 10950 10949 10950 10948 10946 10945 10944 10945 10947 10947 10948 10950 10954
11052 11052 11049 11047 11048 11047 11044 11045 11042 11038 11035 11029 11024 11020 11015 11011 11007 11004 11001 10997 10993 10990 10985 10982 10978 10975 10971 10966 10962 10958 10955 10951 10949 10947 10946 10945 10945 10943 10941 10941 10940 10937 10936 10936 10935 10936 10937 10937 10939
11050 11049 11044 11044 11044 11043 11039 11035 11033 11032 11029 11028 11026 11018 11012 11006 11004 10999 10996 10992 10986 10981 10978 10973 10970 10967 10963 10960 10956 10953 10950 10946 10943 10941 10939 10937 10934 10933 10933 10933 10930 10930 10929 10926 10926 10927 10927 10927 10927
11047 11045 11041 11039 11038 11040 11037 11036 11034 11032 11027 11019 11017 11015 11008 11000 10995 10994 10989 10983 10978 10974 10969 10965 10961 10958 10955 10951 10948 10944 10941 10939 10936 10933 10930 10929 10927 10925 10922 10922 10922 10921 10920 10918 10917 10916 10916 10918 10920
11042 11039 11036 11036 11035 11035 11035 11027 11025 11024 11024 11022 11018 11012 11006 11001 10995 10988 10982 10975 10967 10962 10960 10955 10949 10945 10942 10940 10937 10935 10933 10931 10928 10924 10921 10919 10916 10914 10912 10911 10910 10909 10909 10909 10907 10907 10906 10906 10908
11036 11035 11034 11031 11029 11029 11030 11026 11024 11016 11014 11012 11011 11010 11001 10993 10992 10987 10982 10971 10960 10957 10950 10947 10944 10939 10934 10932 10928 10926 10924 10922 10919 10915 10912 10909 10907 10906 10903 10900 10897 10895 10895 10897 10895 10895 10894 10893 10894
11030 11027 11025 11025 11023 11022 11021 11022 11017 11015 11005 10995 10993 10988 10989 10986 10984 10980 10977 10967 10959 10943 10939 10942 10941 10934 10925 10923 10922 10920 10916 10913 10911 10908 10904 10900 10896 10893 10892 10890 10887 10883 10881 10881 10883 10884 10882 10882 10881
11025 11022 11019 11016 11007 11016 11009 11007 11010 11009 11004 10996 10989 10982 10977 10967 10966 10963 10964 10963 10957 10948 10940 10932 10929 10925 10919 10913 10910 10907 10904 10901 10900 10897 10894 10890 10885 10881 10877 10875 10874 10871 10869 10867 10869 10869 10868 10869 10868
11021 11019 11015 11012 11002 11006 11006 11003 11001 11000 10997 10991 10984 10980 10972 10962 10952 10949 10947 10953 10956 10947 10935 10925 10919 10911 10911 10904 10897 10893 10890 10887 10885 10882 10880 10877 10874 10869 10864 10861 10859 10857 10856 10855 10854 10853 10852 10854 10854
11015 11013 11011 11008 10999 10987 10995 10997 10990 10989 10987 10982 10975 10968 10969 10962 10953 10940 10937 10935 10934 10928 10923 10916 10909 10903 10899 10895 10893 10889 10883 10879 10874 10869 10866 10862 10858 10855 10851 10846 10842 10840 10838 10837 10837 10836 10835 10836 10837
11010 11007 11007 11003 10996 10987 10981 10976 10983 10975 10974 10972 10970 10964 10957 10953 10944 10936 10928 10916 10917 10909 10902 10896 10893 10885 10875 10873 10873 10874 10876 10873 10864 10855 10849 10845 10841 10837 10834 10831 10825 10820 10817 10817 10818 10818 10818 10817 10817